Find Starlink 11595

NORAD ID: 63669 Int'l Des: 2025-085 Owner: SPXS Country: US Constellation: starlink operational
LEOCIRCULAR

リアルタイム位置

3D地球を読み込み中...

Starlink 11595について

説明を読み込み中...

次回通過

Passes for default location (London). Set your location on the main map for personalized predictions.

高度履歴

Loading altitude history...

軌道要素

1 63669U 25085F 26127.15144375 .00197958 00000-0 15059-2 0 9999
2 63669 42.9996 286.2713 0000173 305.7508 54.3343 15.70900185 60081
Epoch: May 7, 2026 • Age: 5 hours

現在のステータス

高度 359.0 km
速度 7.70 km/s
衛星直下点 41.66°N, 38.47°E
打ち上げ日 Apr 28, 2025
運用期間 1 years
タイプ internet

技術仕様

分類 Payload
質量 960.00 kg
乾燥質量 910.00 kg
総質量 960.00 kg
長さ 0.30 m
直径 4.10 m
スパン 29.00 m
形状 Box + pan
製造者 SPXS
バスタイプ Starlink V2MD
フェーズステータス In Orbit
所有者/国 SPXS/US

Most Searched